Location: Firnhaberau
(48.4049°N, 10.8963°E)
Time: 07:18:44
(UTC+00:00)

Tiangong - Pass Details

Date: 27 June 2021
Orbit: 374 x 386 km, 41.5° (Epoch: 28 July)

Event Time Altitude Azimuth Distance (km) Brightness Sun altitude
Exits shadow 00:34:53 11° 123° (ESE) 1,344 3.7 -16.3°
Drops below altitude 10° 00:35:01 10° 121° (ESE) 1,385 3.7 -16.3°
Sets 00:37:30 0° 102° (ESE) 2,241 5.0 -16.2°
